Regional Weather Roundup
Issued by NWS San Diego, CA

Home | Current Version | Previous Version | Text Only | Print | Product List | Glossary On
Versions: 1 2 3 4 5 6 7 8 9 10 11 12 13 14 15 16 17 18 19 20 21 22 23 24 25 26 27 28 29 30 31 32 33 34 35 36 37 38 39 40 41 42 43 44 45 46 47 48 49 50
000
ASUS46 KSGX 311711
RWRSGX

SAN DIEGO HOURLY WEATHER ROUNDUP
NATIONAL WEATHER SERVICE SAN DIEGO CA
1000 AM PDT FRI JUL 31 2015

NOTE: "FAIR" INDICATES FEW OR NO CLOUDS BELOW 12,000 FEET WITH NO
SIGNIFICANT WEATHER AND/OR OBSTRUCTIONS TO VISIBILITY.

CAZ042-043-060-061-PZZ750-775-311800-

GREATER SAN DIEGO AREA

CITY           SKY/WX    TMP DP  RH WIND       PRES   REMARKS
LINDBERGH FLD  PTSUNNY   75  64  69 W7        30.04F
POINT LOMA       N/A     73  65  77 W7          N/A
NATIONAL CITY    N/A     74  68  80 SW3       30.04S
CHULA VISTA      N/A     75  69  83 CALM      29.96F
IMPERIAL BEACH CLOUDY    72  65  78 W8        30.04S
BROWN FIELD    SUNNY     76  66  71 VRB6      30.04S
MIRAMAR MCAS   MOSUNNY   77  64  64 N5        30.04S
MONTGOMERY FLD MOSUNNY   78  65  63 NW6       30.04S

$$

NORTH SAN DIEGO COUNTY

CITY           SKY/WX    TMP DP  RH WIND       PRES   REMARKS
CAMP PENDLETON MOSUNNY   76  65  68 SW5       30.03F
OCEANSIDE AP   MOSUNNY   76  65  68 SW7       30.02F
OCEANSIDE HBR    N/A     71  67  86 W6        30.05F
VISTA            N/A     73  67  81 CALM      30.01F
CARLSBAD       MOSUNNY   73  65  75 SW7       30.03F
DEL MAR          N/A     71  68  89 CALM      30.05F
FALLBROOK        N/A     75  71  88 CALM      30.03F
ESCONDIDO        N/A     78  68  71 CALM      30.04F
POWAY            N/A     79  68  69 CALM      30.03F

$$

EAST SAN DIEGO COUNTY

CITY           SKY/WX    TMP DP  RH WIND       PRES   REMARKS
RAMONA         SUNNY     78  63  59 W8        30.06S
SANTEE LAKES     N/A     79  68  69 CALM      30.01F
LA MESA          N/A     75  67  76 CALM      29.96S
JAMUL            N/A     77  67  70 CALM      30.01S
DESCANSO N       N/A     82  60  46 E5        29.88S
CAMPO            N/A     83  56  39 CALM      30.07F

$$

ORANGE COUNTY AND THE LOS ANGELES BASIN

CITY           SKY/WX    TMP DP  RH WIND       PRES   REMARKS
JOHN WAYNE AP  CLOUDY    72  66  81 CALM      30.03F
LAKE FOREST FR   N/A     74  65  73 CALM      29.93F
SANTA ANA        N/A     74  68  81 CALM      29.99S
HUNTINGTON BCH   N/A     73  67  82 SW2       30.06S
LOS ALAMITOS   CLOUDY    72  67  84 SW5       30.04S
FULLERTON      CLOUDY    74  67  78 VRB3      30.03F
LONG BEACH     CLOUDY    72  66  81 SW3       30.04F
L.A. AP        CLOUDY    70  66  87 W3        30.05S
L.A. DOWNTOWN  CLOUDY    72  65  78 CALM      30.04S

$$

THE INLAND EMPIRE

CITY           SKY/WX    TMP DP  RH WIND       PRES   REMARKS
CORONA         SUNNY     78  67  68 CALM      30.04F
CHINO          MOSUNNY   80  66  62 VRB3      30.05F
ONTARIO        MOSUNNY   80  64  58 W6        30.04F
SAN BERNARDINO MOSUNNY   81  63  54 CALM      30.05F HAZE
RIVERSIDE AP   SUNNY     79  65  62 VRB5      30.04F
MORENO VALLEY    N/A     82  71  69 CALM      30.02F
MARCH ARB      SUNNY     82  65  57 VRB2      30.06S
HORSETHIEF CYN   N/A     82  63  52 N3        30.03F
PERRIS           N/A     82  66  58 W3        30.05F
MENIFEE          N/A     82  66  58 SW1       30.11F
HEMET EAST       N/A     80  63  55 CALM      30.02F
FRENCH VALLEY  FAIR      81  63  54 W3        30.05F
TEMECULA         N/A     78  67  69 NW1       30.00F

$$

SAN BERNARDINO AND RIVERSIDE COUNTY MOUNTAINS

CITY           SKY/WX    TMP DP  RH WIND       PRES   REMARKS
BIG BEAR AP    SUNNY     72  50  46 NE7       30.38S
ANGELUS OAKS     N/A     71  61  70 CALM      29.93S
PINE COVE        N/A     71  58  63 S3        30.00R

$$

SOUTHERN DESERT INCLUDING THE COACHELLA VALLEY

CITY           SKY/WX    TMP DP  RH WIND       PRES   REMARKS
PALM SPRINGS   SUNNY     96  65  35 VRB3      29.95S HX  98
THOUSAND PALMS   N/A     96  65  36 SW5       29.91S HX  98
THERMAL        SUNNY     98  64  32 N10       29.88F HX 100
BLYTHE         SUNNY     95  63  34 CALM      29.94S HX  96
IMPERIAL AP    SUNNY     99  62  29 CALM      29.89F HX 100
EL CENTRO NAS  PTSUNNY   99  59  26 W3        29.91F HX  99
YUMA AZ        PTSUNNY  100  62  28 CALM      29.91F HX 101
MEXICALI       PTSUNNY   99  59  26 NW8       29.91  HX  98

$$

UPPER DESERT

CITY           SKY/WX    TMP DP  RH WIND       PRES   REMARKS
VICTORVILLE AP SUNNY     84  59  42 CALM      30.11S
HESPERIA         N/A     86  64  46 W1        30.05F
APPLE VALLEY     N/A     86  62  43 CALM      30.11F
PALMDALE       SUNNY     86  60  41 CALM      30.08S
LANCASTER      SUNNY     90  60  36 SW5       30.07S
EDWARDS AFB    MOSUNNY   87  61  40 VRB3      30.05S
DAGGETT        SUNNY     91  61  36 NW10      30.04S
29 PALMS N     MOSUNNY   89  61  38 CALM      30.12S
NEEDLES        SUNNY     92  64  39 W3        29.97F

$$

REGIONAL REPORTS

CITY           SKY/WX    TMP DP  RH WIND       PRES   REMARKS
SANTA BARBARA  SUNNY     73  63  70 S7        30.04R
SANDBERG       SUNNY     78  60  53 SW10        N/A
LAS VEGAS NV   MOSUNNY   94  53  25 E6        30.01S
PHOENIX AZ     MOSUNNY   99  59  26 E5        29.95F HX  99
TIJUANA        MOSUNNY   75  63  64 N3        30.06F
ENSENADA NW      N/A     72  32  22 W6        29.99F

$$

OFFSHORE ISLANDS

CITY           SKY/WX    TMP DP  RH WIND       PRES   REMARKS
CATALINA ARPT  PTSUNNY   69  63  81 NE6       30.09S HAZE
SAN CLEMENTE I PTSUNNY   70  60  70 W7        30.06F
SAN NICOLAS IS PTSUNNY  N/A N/A N/A SW7       30.05S

$$

MARINE AND OFFSHORE BUOY REPORTS

STATION/POSITION SKY/WX   TEMP    WIND        PRES    SWELL
                          AIR SEA DIR/SP/G            HT/PER/DIR
                          (F)     (DEG/KT/KT) (MB)    (FT/S/D)
TANNER BANKS               67 68  310/  8/ 10 1017.5S   3/230/14
S CLEMENTE BASIN           67 70  290/  8/ 10 1016.9F   3/230/14
SAN NICOLAS IS.               66                N/A     3/210/13
SO. S. ROSA ISLA           65 68  330/ 10/ 12 1016.5R   5/15
W. S. BARBARA CH           63 65  320/ 14/ 16 1016.4R   3/250/13
M. S. BARBARA CH           66 69  220/  8/  8 1017.5R
S. MONICA BASIN            68 73  140/  4/  8 1017.3R   3/200/14
S PEDRO CHANNEL               71                N/A     2/210/15
DANA POINT                    71                N/A     2/200/17
OCEANSIDE OFFSHR              73                N/A     3/210/14
TORREY PINES OTR              73                N/A     3/210/14
LA JOLLA 1                 71 64  310/  2/  4 1017.0S
MISSION BAY BUOY              72                N/A     3/220/14
SAN DIEGO BAY                 75              1017.6S
POINT LOMA SOUTH              71                N/A     3/200/14

$$




USA.gov is the U.S. government's official web portal to all federal, state and local government web resources and services.